Weather in Galushkinsky

Russia / Volgograd Oblast     50°44′41″N   42°50′51″E
temp.,
°C
wind,
m/s
gust,
m/s
humid.,
%
clouds,
%
prec.,
mm/h
press.,
hPa
HPBL,
m
4 march, thu
thu400:00−6w499253 0.0 1017206
03:00−4wsw5119348 0.0 1017297
06:00−1wsw7139299 0.1 1015756
09:000wsw81387100 0.1 1014928
12:00+1wsw9138777 0.0 1012757
15:00+2wsw6148450 0.0 1010892
18:00+2sw717740 0.0 1008523
21:00+1sw717770 0.0 1007536
5 march, fri
fri500:00+1sw7188415 0.0 1006611
03:00+2wsw7159657 0.4 1005562
06:00+2wsw61298100 0.8 1005468
09:00+2w612100100 1.0 1007585
12:00+2wnw5998100 0.1 1008502
15:00+1wnw5897100 0.2 1010436
18:00−1nnw3790100 0.0 1012221
21:00−2n2286100 0.0 101552
6 march, sat
sat600:00−2nne2388100 0.0 1015105
03:00−3ne3587100 0.0 1015203
06:00−3ene3585100 0.0 1014266
09:00−3ene3592100 0.4 1014330
12:00−2ne3486100 0.4 1013504
15:00−3nne3489100 0.8 1013402
18:00−4nne3491100 0.3 1013332
21:00−6nne229152 0.3 101556
7 march, sun
sun700:00−6nnw118916 0.0 101521
03:00−7n118739 0.0 101621
06:00−7wnw249354 0.0 101889
09:00−5w578772 0.1 1019480
12:00−3wsw696417 0.0 1018986
15:00−2sw8126845 0.0 10151199
18:00−3sw81573100 0.0 10131062
21:00−2sw91768100 0.0 10111187
8 march, mon
mon800:00−2wsw8167397 0.0 1009908
03:00−3wsw7157990 0.0 1008665
06:00−2sw7148196 0.0 1007660
09:00−2sw9158598 0.1 1006880
12:000wsw101579100 0.1 10051191
15:00+1w91485100 0.2 10071180
18:00−3nw6116385 0.5 1010677
21:00−5nw386472 0.5 1013476